Find Starlink 6052

NORAD ID: 56793 Int'l Des: 2023-078 Owner: SPXS Country: US Constellation: starlink operational
LEOCIRCULAR

当前视图

正在加载3D地球...

About Starlink 6052

Starlink 6052 (NORAD 56793) is a starlink constellation satellite (v1.5) launched May 31, 2023 by SPXS of US. It operates in LEO, CIRCULAR orbit with a mass of 305.00 kg.

关于 Starlink 6052

正在加载描述...

即将过境

Passes for default location (London). Set your location on the main map for personalized predictions.

高度历史

Loading altitude history...

两行轨道根数

1 56793U 23078AC 26194.62175854 -.00000162 00000-0 -57811-5 0 9998
2 56793 69.9998 26.9363 0002562 265.7922 94.2944 14.98337340171541
Epoch: Jul 13, 2026 • Age: 10 hours

当前状态

高度 574.1 km
远地点 / 近地点 N/A
速度 7.57 km/s
星下点 2.95°N, 106.99°W
发射日期 May 31, 2023
运行时间 3.1 years
类型 internet

技术详情

分类 Payload
质量 305.00 kg
干质量 290.00 kg
总质量 305.00 kg
长度 0.20 m
直径 2.80 m
跨度 9.00 m
形状 Box + pan
制造商 SPXS
平台类型 Starlink
阶段状态 In Orbit
所有者/国家 SPXS/US

Most Searched